Monte Cimone, Italy

4:06 AM CEST on April 28, 2017 (GMT +0200)
Monte Cimone

Weather History for LIVC - February, 2014

Change the Weather History Date:

Thursday, February 20, 2014

  Actual Average Record
Temperature  
Mean Temperature 32 °F -  
Max Temperature 33 °F 29 °F 42 °F (1998)
Min Temperature 30 °F 21 °F 12 °F (2009)
Degree Days  
Heating Degree Days 34    
Moisture  
Dew Point 31 °F    
Average Humidity 95    
Maximum Humidity 100    
Minimum Humidity 74    
Precipitation  
Precipitation 0.01 in 0.07 in - ()
Sea Level Pressure  
Sea Level Pressure 29.86 in    
Wind  
Wind Speed 9 mph ()    
Max Wind Speed 17 mph    
Max Gust Speed -    
Visibility 0.6 miles    
Events Fog , Snow    
Averages and records for this station are not official NWS values.
T = Trace of Precipitation, MM = Missing Value Source: Averaged Metar Reports

Daily Weather History Graph

Daily Weather History Graph

Search for Another Location

Airport or City:

Trip Planner

Search our weather history database for the weather conditions in past years. The results will help you decide how hot, cold, wet, or windy it might be!

Date:

Astronomy

Feb. 20, 2014 Rise Set
Actual Time 7:09 AM CET 5:53 PM CET
Civil Twilight 6:40 AM CET 6:22 PM CET
Nautical Twilight 6:06 AM CET 6:56 PM CET
Astronomical Twilight 5:32 AM CET 7:29 PM CET
Moon 11:44 PM CET (2/20) 9:29 AM CET (2/20)
Length of Visible Light 11h 42m
Length of Day
10h 43m
Waning Gibbous, 73% of the Moon is Illuminated
Feb 20
Waning Gibbous
Feb 22
Last Quarter
Mar 1
New
Mar 8
First Quarter
Mar 16
Full

Hourly Weather History & Observations

Time (CET) Temp. Windchill Dew Point Humidity Pressure Visibility Wind Dir Wind Speed Gust Speed Precip Events Conditions
12:00 AM 33 °F - 32 °F 96%  in 0 mi SW 12.7 mph - - Snow Light Snow
12:55 AM 33.8 °F 25.3 °F 32.0 °F 93% 29.86 in - SW 11.5 mph - N/A Fog Fog
1:00 AM 34 °F - 33 °F 93%  in 0 mi SW 11.5 mph - - Snow Light Snow
1:55 AM 33.8 °F 27.0 °F 32.0 °F 93% 29.86 in 0.0 mi SW 8.1 mph - N/A Fog Fog
2:00 AM 34 °F - 33 °F 93%  in 0 mi SW 8.1 mph - - Fog Heavy Fog
2:55 AM 33.8 °F 25.8 °F 32.0 °F 93% 29.86 in 0.0 mi West 10.4 mph - N/A Fog Fog
3:00 AM 34 °F - 33 °F 93%  in 0 mi West 10.4 mph - - Fog Heavy Fog
3:55 AM 33.8 °F 24.8 °F 32.0 °F 93% 29.86 in - SW 12.7 mph - N/A Fog Fog
4:00 AM 34 °F - 33 °F 93%  in 0 mi SW 12.7 mph - - Snow Light Snow
4:55 AM 33.8 °F 24.3 °F 32.0 °F 93% 29.83 in - SW 13.8 mph - N/A Fog Fog
5:00 AM 33 °F - 32 °F 96%  in 0 mi SW 13.8 mph - - Snow Light Snow
5:55 AM 33.8 °F 24.8 °F 32.0 °F 93% 29.83 in - SW 12.7 mph - N/A Fog Fog
6:00 AM 33 °F - 32 °F 96%  in 0 mi SW 12.7 mph - - Snow Light Snow
6:55 AM 33.8 °F - 32.0 °F 93% 29.83 in - Calm Calm - N/A Fog Fog
7:00 AM 33 °F - 32 °F 94%  in 0 mi Calm Calm - - Snow Light Snow
7:55 AM 32.0 °F - 32.0 °F 100% 29.86 in - Calm Calm - N/A Fog Fog
8:00 AM 33 °F - 33 °F 97%  in 0 mi Calm Calm - - Snow Light Snow
8:55 AM 32.0 °F - 32.0 °F 100% 29.86 in 0.0 mi Calm Calm - N/A Fog Fog
9:00 AM 32 °F - 32 °F 99%  in 0 mi Calm Calm - - Fog Heavy Fog
9:55 AM 30.2 °F 21.9 °F 30.2 °F 100% 29.86 in 0.0 mi East 9.2 mph - N/A Fog Light Freezing Fog
10:00 AM 31 °F - 30 °F 96%  in 0 mi East 9.2 mph - - Fog Heavy Fog
10:55 AM 30.2 °F 22.6 °F 30.2 °F 100% 29.86 in - East 8.1 mph - N/A Fog Light Freezing Fog
11:00 AM 31 °F - 31 °F 99%  in 0 mi East 8.1 mph - - Snow Light Snow
11:55 AM 30.2 °F 21.9 °F 30.2 °F 100% 29.86 in - East 9.2 mph - N/A Fog Light Freezing Fog
12:00 PM 31 °F - 31 °F 99%  in 0 mi East 9.2 mph - - Snow Light Snow
12:55 PM 30.2 °F 20.2 °F 30.2 °F 100% 29.86 in 0.0 mi South 12.7 mph - N/A Fog Light Freezing Fog
1:00 PM 30 °F - 30 °F 100%  in 0 mi South 12.7 mph - - Fog Heavy Fog
1:55 PM 30.2 °F 20.8 °F 30.2 °F 100% 29.86 in 0.0 mi South 11.5 mph - N/A Fog Light Freezing Fog
2:00 PM 30 °F - 30 °F 98%  in 0 mi South 11.5 mph - - Fog Heavy Fog
2:55 PM 30.2 °F 23.4 °F 30.2 °F 100% 29.86 in 0.0 mi South 6.9 mph - N/A Fog Light Freezing Fog
3:00 PM 31 °F - 30 °F 96%  in 0 mi South 6.9 mph - - Fog Heavy Fog
3:55 PM 32.0 °F 24.2 °F 30.2 °F 93% 29.86 in 0.0 mi South 9.2 mph - N/A Fog Light Freezing Fog
4:00 PM 31 °F - 31 °F 99%  in 0 mi South 9.2 mph - - Fog Heavy Fog
4:55 PM 30.2 °F 20.2 °F 30.2 °F 100% 29.86 in 0.0 mi South 12.7 mph - N/A Fog Light Freezing Fog
5:00 PM 31 °F - 30 °F 94%  in 0 mi South 12.7 mph - - Fog Heavy Fog
5:55 PM 30.2 °F 19.8 °F 30.2 °F 100% 29.86 in 0.0 mi South 13.8 mph - N/A Fog Light Freezing Fog
6:00 PM 31 °F - 30 °F 96%  in 0 mi South 13.8 mph - - Fog Heavy Fog
6:55 PM 32.0 °F 21.2 °F 30.2 °F 93% 29.89 in 0.0 mi South 16.1 mph - N/A Fog Light Freezing Fog
7:00 PM 31 °F - 31 °F 99%  in 0 mi South 16.1 mph - - Fog Heavy Fog
7:55 PM 30.2 °F 18.5 °F 30.2 °F 100% 29.89 in 0.0 mi South 17.3 mph - N/A Fog Light Freezing Fog
8:00 PM 31 °F - 30 °F 93%  in 0 mi South 17.3 mph - - Fog Heavy Fog
8:55 PM 32.0 °F 25.6 °F 30.2 °F 93% 29.89 in 0.0 mi South 6.9 mph - N/A Fog Light Freezing Fog
9:00 PM 31 °F - 30 °F 93%  in 0 mi South 6.9 mph - - Fog Heavy Fog
9:55 PM 32.0 °F 23.6 °F 26.6 °F 80% 29.89 in - South 10.4 mph - N/A   Clear
10:00 PM 32 °F - 27 °F 74%  in 12 mi South 10.4 mph - - Fog Light Fog
10:55 PM 30.2 °F 23.4 °F 28.4 °F 93% 29.89 in - South 6.9 mph - N/A   Clear
11:00 PM 31 °F - 28 °F 86%  in 12 mi South 6.9 mph - -   Partly Cloudy
11:55 PM 32.0 °F 26.4 °F 30.2 °F 93% 29.89 in - SW 5.8 mph - N/A   Clear